[[{"header":{"parameterUnit":"m.s-1","parameterCategory":1,"la1":30.2991,"la2":30.254,"lo1":-89.0895,"lo2":-89.0444,"dy":0.0017,"dx":0.0017,"nx":28,"ny":28,"refTime":"2024-06-20T09:00:00:Z","depth":0,"parameterNumber":2,"parameterNumberName":"U-component_of_WINDS"},"data":[0,0,0,0,0,0,0,0,0,0,0,0,0,0,0,0,0,0,0,0,0,0,0,0,0,0,0,0,0,0,0,0,0,0,0,0,0,0,0,0,0,0,0,0,0,0,0,0,0,0,0,0,0,0,0,0,0,0,-7.0782,-7.0781,0,-7.0734,-7.0733,-7.0733,-7.0568,-7.0564,-7.0561,-7.0557,-7.0511,-7.0513,-7.0515,0,0,0,0,0,0,0,0,0,0,0,0,0,-7.0736,-7.0738,-7.0782,-7.0781,-7.0781,-7.0734,-7.0733,-7.0732,-7.0569,-7.0564,-7.056,-7.0555,-7.051,-7.0513,-7.0515,0,0,0,0,0,0,0,0,0,0,0,0,0,-7.0729,-7.0738,-7.0782,-7.0693,-7.0685,-7.0734,-7.0733,-7.0732,-7.057,-7.0564,-7.0559,-7.0553,-7.0509,-7.0513,-7.0516,-7.0648,0,0,-7.0526,-7.0527,0,0,0,0,0,0,0,0,-7.073,-7.0731,-7.0707,-7.07,-7.069,-7.0651,-7.07,-7.0704,-7.0571,-7.0614,-7.0557,-7.0551,-7.0562,-7.0561,-7.0564,-7.0646,-7.0644,-7.0526,-7.0528,-7.053,-7.0531,0,0,0,0,0,0,0,-7.073,-7.0732,-7.0763,-7.0707,-7.0697,-7.0657,-7.065,-7.07,-7.062,-7.0609,-7.0597,-7.0594,-7.0557,-7.0561,-7.0562,-7.0643,-7.0526,-7.0529,-7.0531,-7.0533,-7.0832,-7.0837,0,0,0,0,0,0,-7.0743,-7.0733,-7.0764,-7.0761,-7.0696,-7.0663,-7.0654,-7.0669,-7.0619,-7.0606,-7.0599,-7.0586,-7.0558,-7.0558,-7.056,-7.0711,-7.053,-7.0533,-7.0535,-7.0826,-7.0833,-7.0839,0,0,0,0,0,0,-7.0743,-7.0747,-7.0766,-7.0744,-7.0744,-7.0669,-7.0687,-7.0671,-7.0676,-7.061,-7.0596,-7.0618,-7.0554,-7.0555,-7.0627,-7.0707,-7.0534,-7.0537,-7.0819,-7.0828,-7.0836,-7.1016,0,0,0,0,0,0,-7.0742,-7.0748,-7.0796,-7.0746,-7.0745,-7.0834,-7.0692,-7.0674,-7.0682,-7.0665,-7.0625,-7.0613,-7.055,-7.0623,-7.0631,-7.0709,-7.054,-7.0811,-7.0823,-7.0833,-7.1002,-7.103,-7.1053,0,0,0,0,0,-7.0741,-7.0849,-7.08,-7.0804,-7.0804,-7.0839,-7.0838,-7.0763,-7.0689,-7.0737,-7.0696,-7.0614,-7.0698,-7.0632,-7.0639,-7.0719,-7.0806,-7.0819,-7.0832,-7.0991,-7.1024,-7.1052,0,0,0,0,0,0,-7.0911,-7.0841,-7.0785,-7.088,-7.0867,-7.0811,-7.087,-7.08,-7.0808,-7.0793,-7.0699,-7.0692,-7.0778,-7.0755,-7.0684,-7.0845,-7.0738,-7.0754,-7.0856,-7.0887,-7.0912,-7.0916,-7.0543,0,0,0,0,0,-7.096,-7.0993,-7.093,-7.102,-7.1016,-7.0945,-7.0957,-7.09,-7.0883,-7.0877,-7.084,-7.0827,-7.085,-7.0868,-7.0885,-7.0998,-7.0988,-7.1058,-7.1083,-7.1104,-7.1119,-7.1178,-7.1208,-7.0883,-7.0883,-7.0883,0,0,-7.1061,-7.1026,-7.1053,-7.1054,-7.1036,-7.1074,-7.0941,-7.0986,-7.1014,-7.0883,-7.0949,-7.0923,-7.0902,-7.0996,-7.1035,-7.098,-7.1206,-7.1121,-7.1139,-7.1141,-7.1195,-7.1226,-7.1253,-7.0892,-7.0891,-7.0889,0,0,-7.1263,-7.1241,-7.1313,-7.1299,-7.1275,-7.1227,-7.1245,-7.12,-7.1177,-7.1241,-7.1145,-7.1177,-7.1218,-7.1208,-7.1208,-7.141,-7.1335,-7.1418,-7.1551,-7.161,-7.1636,-7.1658,-7.1731,-7.1758,-7.1433,-7.1434,-7.1434,0,-7.1392,-7.1443,-7.136,-7.1412,-7.1416,-7.1299,-7.1373,-7.1364,-7.1347,-7.1353,-7.1291,-7.1342,-7.132,-7.141,-7.146,-7.1464,-7.1482,-7.1422,-7.1639,-7.166,-7.168,-7.1748,-7.1775,-7.1444,-7.1443,-7.1441,-7.1441,0,-7.1603,-7.1641,-7.1703,-7.1689,-7.17,-7.1763,-7.1691,-7.1712,-7.1655,-7.1614,-7.1682,-7.1652,-7.1662,-7.1679,-7.1624,-7.1763,-7.1729,-7.1655,-7.1545,-7.1722,-7.1785,-7.181,-7.1458,-7.1455,-7.1452,-7.1449,0,0,-7.1911,-7.1851,-7.1875,-7.1868,-7.1833,-7.1861,-7.192,-7.1929,-7.195,-7.1943,-7.199,-7.2029,-7.196,-7.1961,-7.1904,-7.1956,-7.2118,-7.1874,-7.1872,-7.1921,-7.227,-7.2327,-7.2358,-7.2069,-7.2074,-7.2077,-7.2272,0,-7.2104,-7.2198,-7.2126,-7.2235,-7.2269,-7.216,-7.2211,-7.2197,-7.2161,-7.2186,-7.2146,-7.2175,-7.2082,-7.2082,-7.2128,-7.2089,-7.2187,-7.2074,-7.2113,-7.2116,-7.2122,-7.239,-7.245,-7.2635,-7.2296,-7.23,-7.2303,0,-7.2341,-7.2344,-7.2456,-7.2415,-7.2427,-7.2474,-7.2477,-7.2502,-7.2484,-7.2454,-7.2456,-7.2386,-7.2442,-7.2335,-7.2412,-7.2336,-7.2348,-7.2332,-7.2337,-7.2338,-7.222,-7.2399,-7.2692,-7.272,-7.234,-7.2337,-7.2335,0,-7.2555,-7.2587,-7.2658,-7.2655,-7.2609,-7.2645,-7.2628,-7.2604,-7.2615,-7.2619,-7.2625,-7.2636,-7.2642,-7.2652,-7.2587,-7.2515,-7.2673,-7.2561,-7.2651,-7.2653,-7.2689,-7.2687,-7.2989,-7.2697,-7.2697,-7.2696,-7.2696,0,-7.2777,-7.285,-7.2754,-7.2798,-7.2877,-7.2794,-7.2875,-7.2846,-7.2827,-7.2864,-7.2771,-7.2809,-7.272,-7.275,-7.2699,-7.2771,-7.2775,-7.2753,-7.2739,-7.2761,-7.2764,-7.2768,-7.2754,-7.2704,-7.2702,-7.2701,-7.2699,0,-7.3029,-7.2967,-7.3038,-7.2989,-7.2978,-7.3039,-7.2997,-7.3037,-7.2995,-7.3044,-7.3051,-7.2986,-7.3016,-7.2952,-7.2973,-7.2939,-7.3041,-7.3007,-7.3048,-7.3037,-7.3131,-7.3124,-7.3445,-7.3484,-7.3168,-7.3171,-7.3174,0,-7.3175,-7.3229,-7.3186,-7.3204,-7.3192,-7.3222,-7.3232,-7.3154,-7.3169,-7.3153,-7.3195,-7.3217,-7.3229,-7.3282,-7.3238,-7.3254,-7.3219,-7.3331,-7.3221,-7.3242,-7.3221,-7.3219,-7.3224,-7.3353,-7.3357,-7.336,-7.3363,0,-7.3441,-7.3408,-7.3426,-7.3435,-7.345,-7.3453,-7.3449,-7.347,-7.3386,-7.3408,-7.3437,-7.3447,-7.3469,-7.3492,-7.3498,-7.3481,-7.341,-7.3398,-7.342,-7.3443,-7.3465,-7.3455,-7.311,-7.3391,-7.3388,-7.3386,-7.3384,-7.3383,-7.3645,-7.3688,-7.3664,-7.3688,-7.3677,-7.3677,-7.3712,-7.3675,-7.3697,-7.3707,-7.366,-7.37,-7.3682,-7.3682,-7.3673,-7.3704,-7.3654,-7.3686,-7.3694,-7.3703,-7.3718,-7.3461,-7.3705,-7.3704,-7.3703,-7.3703,-7.3702,0,-7.3906,-7.3886,-7.3909,-7.3907,-7.3927,-7.3856,-7.3849,-7.3871,-7.3906,-7.3895,-7.391,-7.3944,-7.3967,-7.3925,-7.3941,-7.3974,-7.3942,-7.3981,-7.3978,-7.3975,-7.3762,-7.3742,-7.4007,-7.4007,-7.4007,-7.4007,-7.4007,-7.4007,-7.4045,-7.4114,-7.4079,-7.4143,-7.4122,-7.416,-7.4162,-7.4161,-7.4152,-7.4194,-7.4212,-7.4184,-7.4161,-7.4175,-7.4193,-7.418,-7.4191,-7.4242,-7.4219,-7.402,-7.399,-7.3962,-7.3942,-7.4245,-7.4246,-7.4429,-7.4431,-7.4432]},{"header":{"parameterUnit":"m.s-1","parameterCategory":1,"la1":30.2991,"la2":30.254,"lo1":-89.0895,"lo2":-89.0444,"dy":0.0017,"dx":0.0017,"nx":28,"ny":28,"refTime":"2024-06-20T09:00:00:Z","depth":0,"parameterNumber":3,"parameterNumberName":"V-component_of_WINDS"},"data":[0,0,0,0,0,0,0,0,0,0,0,0,0,0,0,0,0,0,0,0,0,0,0,0,0,0,0,0,0,0,0,0,0,0,0,0,0,0,0,0,0,0,0,0,0,0,0,0,0,0,0,0,0,0,0,0,0,0,0.2076,0.2076,0,0.2116,0.2116,0.2117,0.2183,0.2184,0.2186,0.2187,0.2224,0.2224,0.2224,0,0,0,0,0,0,0,0,0,0,0,0,0,0.2054,0.2054,0.2075,0.2076,0.2076,0.2116,0.2116,0.2117,0.2183,0.2185,0.2186,0.2187,0.2225,0.2224,0.2224,0,0,0,0,0,0,0,0,0,0,0,0,0,0.2076,0.2054,0.2075,0.2114,0.2118,0.2116,0.2116,0.2117,0.2183,0.2185,0.2186,0.2188,0.2225,0.2224,0.2224,0.2185,0,0,0.2223,0.2223,0,0,0,0,0,0,0,0,0.2074,0.2076,0.2108,0.2112,0.2116,0.2146,0.2123,0.214,0.2182,0.2158,0.2187,0.2189,0.2197,0.2199,0.2202,0.2187,0.2189,0.2223,0.2223,0.2223,0.2223,0,0,0,0,0,0,0,0.2073,0.2075,0.2091,0.2109,0.2113,0.2129,0.2134,0.2126,0.2166,0.216,0.2165,0.2169,0.2199,0.2202,0.2204,0.2189,0.2223,0.2223,0.2223,0.2223,0.2145,0.2143,0,0,0,0,0,0,0.2066,0.2073,0.209,0.2093,0.21,0.2128,0.2134,0.2135,0.2167,0.2173,0.2168,0.2172,0.2202,0.2204,0.2205,0.2162,0.2223,0.2223,0.2223,0.2147,0.2144,0.2142,0,0,0,0,0,0,0.2065,0.2067,0.2088,0.2084,0.2088,0.2127,0.2127,0.2135,0.2138,0.2172,0.218,0.2164,0.2203,0.2206,0.219,0.2164,0.2223,0.2223,0.2149,0.2146,0.2143,0.2074,0,0,0,0,0,0,0.2064,0.2066,0.2052,0.2084,0.2088,0.2073,0.2125,0.2134,0.2138,0.2144,0.217,0.2176,0.2205,0.219,0.219,0.2165,0.2222,0.2151,0.2148,0.2144,0.2079,0.2069,0.2061,0,0,0,0,0,0.2063,0.203,0.2051,0.2053,0.2072,0.2071,0.2074,0.2108,0.2135,0.2121,0.2144,0.2176,0.2167,0.2188,0.2188,0.2162,0.2153,0.2149,0.2145,0.2083,0.2071,0.2061,0,0,0,0,0,0,0.1993,0.2035,0.2058,0.2035,0.2049,0.2083,0.2066,0.2095,0.2101,0.2106,0.2148,0.2154,0.2133,0.2147,0.2169,0.2127,0.2165,0.2161,0.2118,0.2107,0.2098,0.2094,0.2222,0,0,0,0,0,0.1975,0.1972,0.2009,0.1984,0.199,0.2027,0.2028,0.2054,0.207,0.2076,0.2097,0.211,0.2111,0.211,0.2113,0.2082,0.2088,0.2065,0.2056,0.2048,0.2043,0.2027,0.2017,0.2128,0.2128,0.2128,0,0,0.1937,0.196,0.1955,0.197,0.1985,0.198,0.2031,0.2024,0.202,0.2074,0.2061,0.2077,0.2095,0.2072,0.2063,0.2083,0.2014,0.2042,0.2036,0.2035,0.2022,0.2011,0.2002,0.2125,0.2126,0.2126,0,0,0.1865,0.1882,0.1864,0.1877,0.1899,0.1924,0.1919,0.1949,0.1962,0.195,0.1991,0.1987,0.1987,0.1998,0.2004,0.1939,0.1968,0.1938,0.189,0.1875,0.1866,0.1858,0.1834,0.1824,0.1934,0.1934,0.1933,0,0.1814,0.181,0.185,0.184,0.1846,0.1897,0.1878,0.1889,0.1909,0.1911,0.1934,0.1936,0.1952,0.1932,0.1916,0.192,0.1915,0.1934,0.1864,0.1857,0.185,0.1827,0.1818,0.193,0.193,0.1931,0.1931,0,0.1746,0.1742,0.1725,0.1745,0.1749,0.1734,0.1772,0.1771,0.1797,0.1819,0.1806,0.1827,0.1835,0.1833,0.1857,0.1816,0.1828,0.1857,0.1896,0.1835,0.1814,0.1806,0.1924,0.1926,0.1927,0.1928,0,0,0.1628,0.1673,0.1665,0.1675,0.1704,0.1701,0.1689,0.1698,0.1696,0.1709,0.1699,0.17,0.1727,0.1734,0.1761,0.1747,0.1693,0.1778,0.1779,0.176,0.1647,0.1623,0.1613,0.1714,0.1712,0.1711,0.1645,0,0.156,0.1543,0.158,0.1553,0.155,0.16,0.1589,0.1605,0.1626,0.1626,0.1649,0.1648,0.1685,0.169,0.1679,0.1701,0.167,0.1707,0.1703,0.1703,0.1695,0.1602,0.1577,0.1513,0.1637,0.1636,0.1635,0,0.1478,0.1489,0.1462,0.1493,0.1493,0.1483,0.1495,0.1495,0.1514,0.153,0.1538,0.1571,0.1561,0.16,0.1587,0.1611,0.1612,0.1623,0.1622,0.1621,0.1663,0.1596,0.1494,0.1484,0.1623,0.1624,0.1625,0,0.1393,0.1401,0.1386,0.1393,0.1429,0.1421,0.1435,0.1457,0.146,0.147,0.1473,0.1481,0.1485,0.1491,0.1524,0.155,0.1506,0.1549,0.1518,0.1517,0.1504,0.1504,0.1398,0.1508,0.1508,0.1509,0.1509,0,0.1312,0.1294,0.1348,0.1338,0.1319,0.1362,0.1342,0.1361,0.138,0.1375,0.1419,0.1412,0.1458,0.1457,0.1483,0.1467,0.1469,0.1481,0.1488,0.1476,0.1474,0.1475,0.148,0.1506,0.1507,0.1507,0.1508,0,0.1212,0.1248,0.1235,0.1271,0.128,0.1264,0.1295,0.1287,0.1312,0.1305,0.1306,0.1344,0.1345,0.138,0.1388,0.1406,0.1378,0.1394,0.1371,0.1376,0.1343,0.1344,0.1232,0.1219,0.1339,0.1338,0.1337,0,0.1157,0.1144,0.118,0.118,0.1193,0.1192,0.1197,0.1239,0.1241,0.1264,0.1253,0.1258,0.1264,0.1263,0.1291,0.1297,0.1313,0.1273,0.1313,0.1302,0.131,0.1309,0.1308,0.1263,0.1262,0.1261,0.126,0,0.1055,0.1074,0.1079,0.109,0.1094,0.1105,0.1118,0.1115,0.1162,0.1162,0.1165,0.117,0.1179,0.1183,0.1195,0.1209,0.1241,0.1247,0.124,0.1227,0.1213,0.1219,0.1346,0.1249,0.125,0.1251,0.1251,0.1252,0.0975,0.0966,0.099,0.0994,0.1009,0.102,0.1015,0.104,0.1043,0.1055,0.108,0.1078,0.1099,0.1118,0.113,0.1129,0.1148,0.1138,0.1136,0.1132,0.1125,0.1216,0.1131,0.1131,0.1132,0.1132,0.1132,0,0.0874,0.0892,0.0896,0.0914,0.0917,0.095,0.0967,0.0966,0.0965,0.0982,0.0988,0.099,0.0995,0.1024,0.1032,0.1025,0.104,0.1025,0.1025,0.1028,0.1107,0.1112,0.1013,0.1013,0.1013,0.1013,0.1013,0.1013,0.0821,0.0808,0.0829,0.0823,0.0842,0.0841,0.0848,0.0859,0.0873,0.0874,0.0879,0.0899,0.0921,0.0931,0.0936,0.0945,0.0945,0.0924,0.0937,0.1011,0.1022,0.1033,0.1037,0.0924,0.0924,0.0858,0.0857,0.0857]}]]